Location: Pisa
(43.7170°N, 10.3830°E)
Time: 04:07:16
(UTC+02:00)

ISS - Pass Details

Date: 16 May 2021
Orbit: 417 x 422 km, 51.6° (Epoch: 21 June)

Event Time Altitude Azimuth Distance (km) Brightness Sun altitude
Rises 04:28:55 0° 297° (WNW) 2,374 -0.1 -13.1°
Reaches altitude 10° 04:31:05 10° 290° (WNW) 1,507 -1.2 -12.8°
Maximum altitude 04:34:16 39° 220° (SW) 647 -3.3 -12.3°
Drops below altitude 10° 04:37:26 10° 150° (SSE) 1,500 -1.1 -11.9°
Sets 04:39:36 0° 142° (SE) 2,361 0.0 -11.6°
